New River MCAS, NC

1:45 AM EDT on August 19, 2017 (GMT -0400)
New River Marine Corps Air Station

Weather History for KNCA - January, 2012

Change the Weather History Date:

Sunday, January 29, 2012

  Actual Average Record
Temperature  
Mean Temperature 44 °F -  
Max Temperature 54 °F 53 °F 78 °F (2002)
Min Temperature 34 °F 33 °F 21 °F (2000)
Degree Days  
Heating Degree Days 21    
Moisture  
Dew Point 26 °F    
Average Humidity 52    
Maximum Humidity 86    
Minimum Humidity 24    
Precipitation  
Precipitation 0.00 in - - ()
Sea Level Pressure  
Sea Level Pressure 30.30 in    
Wind  
Wind Speed 7 mph (NW)    
Max Wind Speed 12 mph    
Max Gust Speed 17 mph    
Visibility 10 miles    
Events      
Averages and records for this station are not official NWS values.
T = Trace of Precipitation, MM = Missing Value Source: NWS Daily Summary

Daily Weather History Graph

Daily Weather History Graph

Search for Another Location

Airport or City:

Trip Planner

Search our weather history database for the weather conditions in past years. The results will help you decide how hot, cold, wet, or windy it might be!

Date:

Astronomy

Jan. 29, 2012 Rise Set
Actual Time 7:10 AM EST 5:35 PM EST
Civil Twilight 6:43 AM EST 6:02 PM EST
Nautical Twilight 6:13 AM EST 6:32 PM EST
Astronomical Twilight 5:43 AM EST 7:02 PM EST
Moon 10:19 AM EST (1/29) 11:58 PM EST (1/29)
Length of Visible Light 11h 18m
Length of Day
10h 25m
Waxing Crescent, 36% of the Moon is Illuminated
Jan 29
Waxing Crescent
Jan 30
First Quarter
Feb 7
Full
Feb 14
Last Quarter
Feb 21
New

Hourly Weather History & Observations

Time (EST) Temp. Windchill Dew Point Humidity Pressure Visibility Wind Dir Wind Speed Gust Speed Precip Events Conditions
12:56 AM 48.0 °F - 37.0 °F 66% 30.19 in 10.0 mi North 10.4 mph - N/A   Clear
1:56 AM 48.0 °F - 34.0 °F 58% 30.22 in 10.0 mi North 9.2 mph - N/A   Clear
2:56 AM 45.0 °F 41.2 °F 34.0 °F 65% 30.24 in 10.0 mi NNW 6.9 mph - N/A   Clear
3:56 AM 44.1 °F 40.8 °F 32.0 °F 63% 30.25 in 10.0 mi North 5.8 mph - N/A   Mostly Cloudy
4:56 AM 44.1 °F 40.1 °F 32.0 °F 63% 30.27 in 10.0 mi North 6.9 mph - N/A   Overcast
5:56 AM 44.1 °F 39.5 °F 28.0 °F 53% 30.28 in 10.0 mi North 8.1 mph - N/A   Scattered Clouds
6:56 AM 41.0 °F 36.4 °F 27.0 °F 57% 30.30 in 10.0 mi NNW 6.9 mph - N/A   Partly Cloudy
7:56 AM 42.1 °F 39.2 °F 27.0 °F 55% 30.33 in 10.0 mi NNW 4.6 mph - N/A   Clear
8:56 AM 46.0 °F 40.6 °F 24.1 °F 42% 30.35 in 10.0 mi NNE 11.5 mph 17.3 mph N/A   Clear
9:56 AM 46.9 °F - 23.0 °F 39% 30.37 in 10.0 mi North 10.4 mph - N/A   Clear
10:56 AM 48.9 °F - 21.0 °F 33% 30.38 in 10.0 mi North 11.5 mph - N/A   Clear
11:56 AM 52.0 °F - 19.9 °F 28% 30.36 in 10.0 mi NNE 9.2 mph - N/A   Clear
12:56 PM 52.0 °F - 19.0 °F 27% 30.32 in 10.0 mi NW 5.8 mph - N/A   Clear
1:56 PM 54.0 °F - 19.0 °F 25% 30.29 in 10.0 mi Variable 3.5 mph - N/A   Clear
2:56 PM 54.0 °F - 18.0 °F 24% 30.27 in 10.0 mi Variable 5.8 mph - N/A   Clear
3:56 PM 54.0 °F - 18.0 °F 24% 30.28 in 10.0 mi WNW 6.9 mph - N/A   Clear
4:56 PM 52.0 °F - 19.9 °F 28% 30.27 in 10.0 mi West 4.6 mph - N/A   Clear
5:56 PM 46.9 °F - 24.1 °F 41% 30.29 in 10.0 mi West 3.5 mph - N/A   Clear
6:56 PM 39.9 °F 37.8 °F 33.1 °F 77% 30.32 in 10.0 mi SW 3.5 mph - N/A   Clear
7:56 PM 36.0 °F - 32.0 °F 86% 30.33 in 10.0 mi Calm Calm - N/A   Clear
8:56 PM 34.0 °F - 30.0 °F 85% 30.33 in 10.0 mi Calm Calm - N/A   Clear
9:56 PM 36.0 °F 32.1 °F 28.9 °F 76% 30.33 in 10.0 mi SW 4.6 mph - N/A   Clear
10:56 PM 36.0 °F 32.1 °F 26.1 °F 67% 30.32 in 10.0 mi WSW 4.6 mph - N/A   Clear
11:56 PM 36.0 °F 31.1 °F 24.1 °F 62% 30.32 in 10.0 mi WSW 5.8 mph - N/A   Clear